星链-3914 (STARLINK-3914 )

导读 | 豆包AI

STARLINK-3914是美国SpaceX公司星链计划的卫星,于2022年5月6日发射升空,属于Starlink Group 组网批次卫星。星链计划旨在构建全球卫星互联网星座,该卫星在低地球轨道运行,为全球范围内用户提供宽带互联网接入服务,助力星链完成全球覆盖的组网目标。

Basic Information
目录编号:
52490
目录名称:
STARLINK-3914
国际标识:
2022-049AR
轨道中心:
EARTH
卫星名称:
星链-3914
卫星全名:
星链-3914 (STARLINK-3914 )
卫星状态:
在轨 (已飞行1409 天)
发射日期:
2022-05-06 UTC
国别 :
美国 (US)
星等 :
--
Orbit Information
数据来源 国际轨道数据 AOE轨道数据
星历时间 2026-03-14T12:47:34+0800
20小时前
查看轨道信息
2026-03-10T11:00:00+0800
4天前
查看轨道信息
半长轴 6917.878km 6917.888km
偏心率 0.0001427 0.0001318
轨道倾角 53.219° 53.218°
近地点辐角 84.843° 94.372°
升交点赤经 28.873° 47.165°
平近点角 275.273° 80.689°
近地点 538.753km 538.839km
远地点 540.729km 540.663km
周期 95.437分钟 95.438分钟
每日圈数 15.088409 15.088376
Detailed Information
固有亮度:
5
最大亮度:
2.5
卫星平台:
Starlink v1.5
覆盖范围:
全球
运营商:
太空探索技术公司
运营商所在国:
美国
制造商(研发单位):
太空探索技术公司
制造商所在国:
美国
使用方式:
暂无
Satellite Introduction
星链(Starlink)计划是由太空探索技术公司(SpaceX)提出的一个巨型低轨卫星互联网星座项目,计划在2019年至2024年间在太空搭建由约1.2万颗卫星组成的“星链”网络,其中1584颗将部署在地球上空550千米处的近地轨道,并从2020年开始工作。该卫星仍在工作。
2D Orbit Map
3D Orbit Map
Orbit Altitude Analysis Chart
Orbit Inclination Analysis Chart
Orbit Comprehensive Analysis Chart
View Comprehensive Chart